OE5XFR Weather Reports


Display with metric or nautical units.
time (UTC)temp
F
wind
direction
speed
MPH
gust
MPH
rain 1hr
in
rain 24hr
in
rain mn
in
humidity
%
barometer
mb
20260507094515 56 284 6.0 16.0 0.00 0.19 0.00 52 1015.0
20260507093316 56 289 16.0 23.0 0.00 0.19 0.00 51 1015.0
20260507092116 56 278 17.0 24.0 0.00 0.19 0.00 50 1015.0
20260507090915 55 236 10.0 21.0 0.00 0.19 0.00 52 1015.0
20260507085715 55 259 12.0 18.0 0.00 0.19 0.00 53 1014.0
20260507084516 55 259 18.0 21.0 0.00 0.19 0.00 52 1014.0
20260507083315 55 251 16.0 23.0 0.00 0.19 0.00 52 1014.0
20260507082115 55 263 12.0 20.0 0.00 0.19 0.00 53 1014.0
20260507080916 55 232 10.0 16.0 0.00 0.19 0.00 55 1014.0
20260507074515 54 245 11.0 15.0 0.00 0.19 0.00 56 1014.0
20260507073315 54 255 9.0 14.0 0.00 0.19 0.00 56 1014.0
20260507072115 54 248 10.0 9.0 0.00 0.19 0.00 57 1014.0
20260507070915 53 245 7.0 10.0 0.00 0.19 0.00 64 1014.0
20260507065715 52 259 5.0 8.0 0.00 0.19 0.00 66 1014.0
20260507064517 52 259 5.0 8.0 0.00 0.19 0.00 66 1014.0
20260507063315 51 246 5.0 8.0 0.00 0.20 0.20 68 1014.0
20260507062115 51 252 5.0 7.0 0.00 0.20 0.20 70 1014.0
20260507060915 51 255 4.0 8.0 0.00 0.20 0.20 72 1014.0
20260507055715 51 261 3.0 6.0 0.00 0.20 0.20 75 1014.0
20260507054515 50 256 4.0 8.0 0.00 0.20 0.20 74 1014.0
20260507053315 50 287 4.0 6.0 0.00 0.20 0.20 74 1014.0
20260507052116 50 264 4.0 7.0 0.00 0.20 0.20 75 1013.0
20260507050914 50 254 2.0 6.0 0.00 0.20 0.20 77 1013.0
20260507045715 50 259 3.0 5.0 0.00 0.20 0.20 74 1013.0
20260507044515 50 242 3.0 7.0 0.00 0.20 0.20 74 1013.0
20260507043315 50 256 5.0 8.0 0.00 0.20 0.20 74 1013.0
20260507042114 49 242 6.0 9.0 0.00 0.20 0.20 75 1013.0
20260507040914 49 228 7.0 9.0 0.00 0.20 0.20 79 1013.0
20260507035714 48 254 7.0 9.0 0.00 0.20 0.20 90 1012.0
20260507034515 48 254 7.0 9.0 0.00 0.20 0.20 90 1012.0
20260507033315 47 269 4.0 6.0 0.00 0.20 0.20 92 1013.0
20260507032114 47 77 1.0 3.0 0.00 0.20 0.20 92 1013.0
20260507030914 47 37 3.0 4.0 0.00 0.20 0.20 91 1013.0
20260507025715 48 274 3.0 6.0 0.00 0.20 0.20 89 1012.0
20260507024514 48 274 3.0 6.0 0.00 0.20 0.20 89 1012.0
20260507023314 48 268 5.0 8.0 0.00 0.20 0.20 88 1012.0
20260507022114 49 251 5.0 9.0 0.00 0.20 0.20 88 1012.0
20260507020914 48 259 6.0 9.0 0.00 0.20 0.20 90 1012.0
20260507015714 48 251 9.0 10.0 0.00 0.20 0.20 90 1012.0
20260507014514 48 254 8.0 10.0 0.00 0.20 0.20 90 1012.0
20260507013315 48 240 8.0 11.0 0.00 0.20 0.20 90 1012.0
20260507012114 48 241 8.0 11.0 0.00 0.20 0.20 90 1012.0
20260507010914 48 241 8.0 10.0 0.00 0.20 0.20 90 1012.0
20260507005714 48 252 9.0 11.0 0.00 0.20 0.20 89 1012.0
20260507004514 48 252 9.0 11.0 0.00 0.20 0.20 89 1012.0
20260507003318 49 252 7.0 9.0 0.00 0.20 0.20 87 1012.0
20260507002114 49 234 8.0 8.0 0.00 0.20 0.20 86 1012.0
20260507000915 50 251 6.0 9.0 0.00 0.20 0.20 82 1012.0
20260506235714 50 247 9.0 10.0 0.00 0.20 0.20 81 1012.0
20260506234514 50 247 9.0 10.0 0.00 0.20 0.20 81 1012.0
20260506233314 51 237 8.0 12.0 0.00 0.20 0.20 82 1012.0
20260506232114 51 237 9.0 15.0 0.00 0.20 0.20 80 1012.0
20260506230915 51 239 9.0 14.0 0.00 0.20 0.20 85 1012.0
20260506225714 51 242 11.0 15.0 0.00 0.20 0.20 88 1011.0
20260506224514 51 242 9.0 15.0 0.00 0.20 0.20 87 1011.0
20260506223315 51 244 12.0 15.0 0.00 0.20 0.20 90 1011.0
20260506222114 51 244 12.0 15.0 0.00 0.20 0.20 90 1011.0
20260506220914 51 242 10.0 17.0 0.01 0.20 0.20 90 1011.0
20260506215714 51 258 14.0 19.0 0.01 0.20 0.20 91 1011.0
20260506214515 51 237 11.0 15.0 0.01 0.20 0.20 91 1011.0
20260506213314 51 248 8.0 16.0 0.00 0.19 0.19 92 1011.0
20260506212114 51 246 13.0 16.0 0.00 0.19 0.19 93 1011.0
20260506210914 51 246 9.0 14.0 0.00 0.19 0.19 92 1011.0
20260506205714 52 256 19.0 22.0 0.06 0.18 0.18 92 1011.0
20260506204514 52 256 19.0 22.0 0.06 0.18 0.18 92 1011.0
20260506203314 53 267 12.0 15.0 0.04 0.16 0.16 94 1011.0
20260506202114 53 250 13.0 17.0 0.02 0.13 0.13 94 1011.0
20260506200914 53 258 10.0 15.0 0.00 0.11 0.11 93 1010.0
20260506195714 54 270 15.0 20.0 0.08 0.09 0.09 93 1010.0
20260506194515 54 270 15.0 20.0 0.08 0.09 0.09 93 1010.0
20260506193314 54 259 13.0 18.0 0.06 0.07 0.07 92 1009.0
20260506192115 55 260 15.0 17.0 0.04 0.05 0.05 92 1009.0
20260506190915 55 258 8.0 13.0 0.00 0.01 0.01 90 1009.0
20260506185716 56 249 13.0 20.0 0.00 0.00 0.00 89 1008.0
20260506184515 56 251 16.0 23.0 0.00 0.00 0.00 88 1008.0
20260506183314 56 239 14.0 23.0 0.00 0.00 0.00 84 1007.0
20260506182115 56 247 18.0 24.0 0.00 0.00 0.00 77 1007.0
20260506180914 58 242 15.0 23.0 0.00 0.00 0.00 56 1007.0
20260506175714 59 241 16.0 20.0 0.00 0.00 0.00 52 1006.0
20260506174515 59 241 16.0 20.0 0.00 0.00 0.00 52 1006.0
20260506173314 64 268 15.0 37.0 0.00 0.00 0.00 42 1005.0
20260506172114 70 280 34.0 41.0 0.00 0.00 0.00 32 1004.0
20260506170915 71 193 7.0 12.0 0.00 0.00 0.00 29 1003.0
20260506165714 71 128 4.0 10.0 0.00 0.02 0.00 32 1004.0
20260506164515 71 128 4.0 10.0 0.00 0.02 0.00 32 1004.0
20260506163314 71 78 8.0 16.0 0.00 0.02 0.00 33 1004.0
20260506162513 71 74 10.0 15.0 0.00 0.02 0.00 33 1004.0
20260506160914 71 100 14.0 17.0 0.00 0.02 0.00 32 1004.0
20260506155715 72 73 8.0 19.0 0.00 0.02 0.00 32 1004.0
20260506154515 72 69 12.0 20.0 0.00 0.02 0.00 32 1004.0
20260506153314 72 70 12.0 18.0 0.00 0.02 0.00 34 1004.0
20260506152115 71 14 12.0 20.0 0.00 0.02 0.00 35 1005.0
20260506150914 71 22 5.0 18.0 0.00 0.02 0.00 36 1005.0
20260506145714 70 69 9.0 17.0 0.00 0.02 0.00 36 1005.0
20260506144514 70 60 10.0 18.0 0.00 0.02 0.00 37 1005.0
20260506143315 70 46 11.0 17.0 0.00 0.02 0.00 37 1005.0
20260506142114 69 53 9.0 15.0 0.00 0.02 0.00 38 1005.0
20260506140915 69 74 11.0 17.0 0.00 0.02 0.00 39 1006.0
20260506135715 69 21 7.0 17.0 0.00 0.02 0.00 38 1006.0
20260506134516 69 21 7.0 17.0 0.00 0.02 0.00 38 1006.0
20260506133315 68 32 15.0 15.0 0.00 0.02 0.00 41 1006.0
20260506132115 68 53 4.0 16.0 0.00 0.02 0.00 39 1006.0
20260506130915 68 72 13.0 14.0 0.00 0.02 0.00 38 1006.0
20260506125716 69 86 9.0 15.0 0.00 0.02 0.00 40 1006.0
20260506124515 69 73 15.0 18.0 0.00 0.02 0.00 39 1006.0
20260506123315 68 27 6.0 17.0 0.00 0.02 0.00 41 1006.0
20260506122117 67 40 8.0 16.0 0.00 0.02 0.00 40 1007.0
20260506120916 66 91 12.0 15.0 0.00 0.02 0.00 42 1007.0
20260506115715 66 67 11.0 14.0 0.00 0.02 0.00 44 1007.0
20260506114516 65 83 12.0 18.0 0.00 0.02 0.00 47 1007.0
20260506113315 65 74 10.0 14.0 0.00 0.02 0.00 46 1007.0
20260506112115 64 74 11.0 13.0 0.00 0.02 0.00 47 1008.0
20260506110915 64 68 11.0 11.0 0.00 0.02 0.00 48 1008.0
20260506105715 64 70 5.0 16.0 0.00 0.02 0.00 47 1008.0
20260506104515 64 70 5.0 16.0 0.00 0.02 0.00 47 1008.0
20260506103316 63 99 4.0 14.0 0.00 0.02 0.00 52 1008.0
20260506100915 62 68 11.0 13.0 0.00 0.02 0.00 53 1008.0
20260506095715 62 76 6.0 14.0 0.00 0.02 0.00 52 1009.0